ARIANE 5 DEB (SYLDA), 29164

Orbit data source: Space-Track

ARIANE 5 DEB (SYLDA), 29164 is space debris originally from a launch on Sat, 27 May 2006 UTC launched from the French Guiana (FRGUI). Debris objects in space refer to the collection of defunct objects orbiting the Earth. Examples of debris include non-operational satellites, rocket bodies, and fragments generated from explosions, collisions, or faulty payload assembly.

Loading next visibility...
Identifier
29164, 2006-020C
Orbit
Active
Country
Flag of FRFR
Related business
Manufacturer
EADS/Bremen
Mission
Spacecraft
Bus & Motor
SYLDA 5, Unknown motor
Mass
440 kg wet, 440 kg dry
Launch date (UTC)
2006-05-27 (19 years ago)
Launch vehicle
Unknown
Launch site
French Guiana (FRGUI)
Object type
Payload
Rocket body
Debris
Shape & HBR
Cyl, 2.9 m
Radar Cross Section
28.451 m², Large (>1 m²)

Expand to show TLE details & history
Last TLE update: 20 hours ago

TLE from 20 hours ago
0 ARIANE 5 DEB (SYLDA)
1 29164U 06020C   25260.23805860  .00165112 -29396-5  47868-2 0  9993
2 29164   6.8088 274.2741 2719814 209.7747 131.5468  9.96714419374179
Epoch: 2025-09-17T05:42Z
TLE epoch observation values (Epoch: 2025-09-17T05:42:48.263Z)
Latitude
Longitude
-167.84386°
Altitude
4,674.921 km
Speed
5.333 km/s
True Right ascension
18h 17m 05s
True Declination
0° 00' 00"
Sunlit
Object was in daylight at epoch
Visualization orbit readout
Latitude
Unknown
Longitude
Unknown
Altitude
Unknown
Speed
Unknown
Apparent Right ascension
Unknown
Apparent Declination
Unknown
Sunlit
N/A
Visualization observer readout
Local Sidereal Time
18:29:46
Azimuth
Unknown
Elevation
Unknown
Doppler factor
Unknown
Orbital elements
Apogee altitude
5,229.799 km
Perigee altitude
265.666 km
Semi-major axis
9,125.869 km
Eccentricity
0.27198
Inclination
6.8088°
RAAN
274.2741°
Arg. of periapsis
209.7747°
True anomaly
150.23662°
Mean anomaly
131.5468°
Eccentric anomaly
141.29191°
Mean motion
2.48961 °/min
Orbital period
144.6 mins
BSTAR
0.0047868
Loading maneuver chart data...
Computing Atmospheric mass density...
Loading historical data...
Loading historical data...
Loading historical data...
Loading historical data...
Loading historical data...
Loading historical data...
Loading historical data...
Other satellites on launch #20 in the year 2006 (2006-05-27 UTC)

Documentation

Showing up to 5 results
|